[[{"header":{"parameterUnit":"m.s-1","parameterCategory":1,"la1":30.2991,"la2":30.254,"lo1":-89.0895,"lo2":-89.0444,"dy":0.0017,"dx":0.0017,"nx":28,"ny":28,"refTime":"2024-03-10T21:00:00:Z","depth":0,"parameterNumber":2,"parameterNumberName":"U-component_of_WINDS"},"data":[0,0,0,0,0,0,0,0,0,0,0,0,0,0,0,0,0,0,0,0,0,0,0,0,0,0,0,0,0,0,0,0,0,0,0,0,0,0,0,0,0,0,0,0,0,0,0,0,0,0,0,0,0,0,0,0,0,0,-4.8997,-4.8998,0,-4.9037,-4.9037,-4.9037,-4.8941,-4.8938,-4.8935,-4.8932,-4.8973,-4.8977,-4.8981,0,0,0,0,0,0,0,0,0,0,0,0,0,-4.8839,-4.8843,-4.8997,-4.8998,-4.8998,-4.9037,-4.9037,-4.9038,-4.8942,-4.8938,-4.8934,-4.8931,-4.8972,-4.8976,-4.8981,0,0,0,0,0,0,0,0,0,0,0,0,0,-4.8896,-4.8844,-4.8997,-4.8955,-4.8951,-4.9036,-4.9037,-4.9038,-4.8942,-4.8938,-4.8933,-4.8929,-4.897,-4.8976,-4.8982,-4.911,0,0,-4.9,-4.9002,0,0,0,0,0,0,0,0,-4.8893,-4.8902,-4.8961,-4.8958,-4.8954,-4.8979,-4.8996,-4.9062,-4.8944,-4.8946,-4.8932,-4.8927,-4.8979,-4.8984,-4.9001,-4.9112,-4.9113,-4.9,-4.9004,-4.9006,-4.9008,0,0,0,0,0,0,0,-4.889,-4.89,-4.9013,-4.8962,-4.8958,-4.8934,-4.8937,-4.9008,-4.8988,-4.8945,-4.8938,-4.8944,-4.8976,-4.8996,-4.9001,-4.9114,-4.9,-4.9005,-4.9009,-4.9011,-4.9332,-4.9337,0,0,0,0,0,0,-4.8891,-4.8897,-4.9011,-4.9014,-4.8912,-4.8941,-4.8944,-4.8976,-4.8987,-4.8984,-4.8948,-4.894,-4.8988,-4.8995,-4.9003,-4.9153,-4.9006,-4.9012,-4.9015,-4.9327,-4.9333,-4.9338,0,0,0,0,0,0,-4.8888,-4.8902,-4.901,-4.8954,-4.8966,-4.8948,-4.8985,-4.8979,-4.8998,-4.8989,-4.8985,-4.8972,-4.8985,-4.8994,-4.9084,-4.9154,-4.9015,-4.902,-4.9321,-4.9329,-4.9336,-4.9456,0,0,0,0,0,0,-4.8884,-4.8901,-4.895,-4.8956,-4.8969,-4.9091,-4.8989,-4.8983,-4.9009,-4.8998,-4.901,-4.9007,-4.8982,-4.9076,-4.909,-4.9159,-4.9025,-4.9315,-4.9325,-4.9333,-4.9446,-4.9467,-4.9485,0,0,0,0,0,-4.8878,-4.8982,-4.8953,-4.8967,-4.9029,-4.9095,-4.9103,-4.9071,-4.9015,-4.9063,-4.9057,-4.9007,-4.9144,-4.9086,-4.9101,-4.9173,-4.931,-4.9322,-4.9333,-4.9437,-4.9463,-4.9484,0,0,0,0,0,0,-4.8984,-4.8982,-4.8949,-4.9058,-4.9077,-4.9078,-4.9138,-4.9099,-4.9135,-4.9123,-4.9082,-4.9086,-4.9183,-4.9187,-4.9122,-4.9298,-4.9217,-4.9232,-4.9292,-4.9316,-4.9335,-4.9332,-4.9029,0,0,0,0,0,-4.902,-4.9074,-4.9069,-4.9165,-4.9176,-4.9156,-4.9184,-4.9158,-4.9176,-4.9184,-4.9184,-4.9205,-4.9252,-4.9284,-4.9327,-4.9446,-4.9448,-4.9503,-4.9523,-4.9539,-4.9552,-4.9616,-4.9641,-4.9375,-4.9375,-4.9375,0,0,-4.9095,-4.91,-4.9137,-4.9186,-4.9198,-4.9255,-4.9164,-4.9227,-4.9269,-4.9194,-4.9278,-4.928,-4.9299,-4.9405,-4.9451,-4.9411,-4.9626,-4.9553,-4.9566,-4.957,-4.963,-4.9655,-4.9678,-4.9383,-4.9382,-4.938,0,0,-4.9261,-4.927,-4.9351,-4.9366,-4.9385,-4.9371,-4.9391,-4.9398,-4.9396,-4.9481,-4.9425,-4.9475,-4.9557,-4.9574,-4.9593,-4.9766,-4.9722,-4.9781,-4.9883,-4.9946,-4.9967,-4.9985,-5.0048,-5.007,-4.9795,-4.9795,-4.9795,0,-4.9351,-4.9434,-4.9398,-4.9466,-4.949,-4.9424,-4.9507,-4.9522,-4.9555,-4.9573,-4.9528,-4.963,-4.9639,-4.9747,-4.979,-4.9807,-4.9829,-4.978,-4.9967,-4.9985,-5.0001,-5.006,-5.0084,-4.9802,-4.9801,-4.9801,-4.98,0,-4.9545,-4.9604,-4.9667,-4.9701,-4.9732,-4.9807,-4.9782,-4.9818,-4.979,-4.9781,-4.9868,-4.9876,-4.992,-4.9944,-4.9917,-5.005,-5.0024,-4.9973,-4.9892,-5.0034,-5.0089,-5.0112,-4.9812,-4.981,-4.9808,-4.9806,0,0,-4.9778,-4.9791,-4.9815,-4.983,-4.9847,-4.9892,-4.9964,-5.0007,-5.0039,-5.0064,-5.0124,-5.0196,-5.0149,-5.0172,-5.0146,-5.0201,-5.0339,-5.0143,-5.0143,-5.018,-5.0486,-5.0524,-5.0551,-5.0309,-5.0313,-5.0317,-5.0485,0,-4.9942,-5.0066,-5.0036,-5.0159,-5.0213,-5.0152,-5.0215,-5.0233,-5.0227,-5.0272,-5.0265,-5.0317,-5.0251,-5.0264,-5.0316,-5.0311,-5.04,-5.0298,-5.0365,-5.0368,-5.0362,-5.058,-5.062,-5.0778,-5.0506,-5.0509,-5.0512,0,-5.015,-5.0183,-5.0312,-5.0321,-5.0342,-5.04,-5.0437,-5.0481,-5.05,-5.0492,-5.0517,-5.0481,-5.0553,-5.0471,-5.057,-5.0502,-5.0527,-5.0529,-5.0535,-5.054,-5.0449,-5.0591,-5.0828,-5.0852,-5.0545,-5.0542,-5.054,0,-5.0308,-5.0385,-5.0472,-5.0486,-5.0499,-5.0541,-5.0548,-5.0562,-5.0591,-5.0624,-5.0641,-5.0683,-5.0705,-5.0738,-5.0714,-5.0656,-5.0818,-5.0733,-5.0813,-5.0814,-5.085,-5.0848,-5.1094,-5.0866,-5.0866,-5.0865,-5.0865,0,-5.0494,-5.0575,-5.0543,-5.0597,-5.0686,-5.0651,-5.0741,-5.0741,-5.0755,-5.0807,-5.0757,-5.0808,-5.0773,-5.0821,-5.0802,-5.0888,-5.0898,-5.0894,-5.0888,-5.0899,-5.0899,-5.0915,-5.0904,-5.0872,-5.087,-5.0869,-5.0868,0,-5.0685,-5.0667,-5.0758,-5.0763,-5.0766,-5.0832,-5.0836,-5.0886,-5.0876,-5.0944,-5.0958,-5.0943,-5.0997,-5.0976,-5.1033,-5.1021,-5.1131,-5.111,-5.1124,-5.1119,-5.12,-5.1193,-5.1466,-5.15,-5.125,-5.1252,-5.1254,0,-5.0806,-5.0867,-5.0878,-5.091,-5.0921,-5.0973,-5.1002,-5.097,-5.1002,-5.1029,-5.1076,-5.1126,-5.1164,-5.1253,-5.1248,-5.1292,-5.1272,-5.1365,-5.1278,-5.1287,-5.1274,-5.1271,-5.1277,-5.1382,-5.1385,-5.1387,-5.1389,0,-5.1021,-5.1009,-5.1052,-5.1093,-5.1129,-5.1159,-5.1185,-5.1214,-5.1183,-5.1222,-5.1277,-5.1307,-5.1365,-5.1416,-5.1455,-5.1463,-5.1422,-5.1416,-5.1437,-5.1449,-5.1455,-5.1453,-5.1172,-5.141,-5.1408,-5.1407,-5.1405,-5.1405,-5.1181,-5.1233,-5.1249,-5.1299,-5.1315,-5.1341,-5.1389,-5.1385,-5.143,-5.1476,-5.1454,-5.1518,-5.1536,-5.1585,-5.1599,-5.1648,-5.1612,-5.1643,-5.165,-5.1658,-5.1669,-5.1447,-5.1655,-5.1655,-5.1654,-5.1654,-5.1653,0,-5.1394,-5.1402,-5.1448,-5.1486,-5.1526,-5.1484,-5.151,-5.1547,-5.1603,-5.1624,-5.1662,-5.1726,-5.1775,-5.1774,-5.1819,-5.1859,-5.1841,-5.1872,-5.1869,-5.1872,-5.1698,-5.1676,-5.1886,-5.1886,-5.1886,-5.1886,-5.1885,-5.1885,-5.151,-5.1596,-5.1586,-5.168,-5.1686,-5.1749,-5.1768,-5.1791,-5.1807,-5.1881,-5.1921,-5.192,-5.1932,-5.1978,-5.2021,-5.2019,-5.2039,-5.2077,-5.2068,-5.1907,-5.1884,-5.1862,-5.184,-5.2081,-5.2081,-5.2237,-5.2239,-5.224]},{"header":{"parameterUnit":"m.s-1","parameterCategory":1,"la1":30.2991,"la2":30.254,"lo1":-89.0895,"lo2":-89.0444,"dy":0.0017,"dx":0.0017,"nx":28,"ny":28,"refTime":"2024-03-10T21:00:00:Z","depth":0,"parameterNumber":3,"parameterNumberName":"V-component_of_WINDS"},"data":[0,0,0,0,0,0,0,0,0,0,0,0,0,0,0,0,0,0,0,0,0,0,0,0,0,0,0,0,0,0,0,0,0,0,0,0,0,0,0,0,0,0,0,0,0,0,0,0,0,0,0,0,0,0,0,0,0,0,-1.7595,-1.7595,0,-1.7597,-1.7597,-1.7597,-1.757,-1.7569,-1.7568,-1.7567,-1.757,-1.7571,-1.7571,0,0,0,0,0,0,0,0,0,0,0,0,0,-1.7567,-1.7568,-1.7595,-1.7595,-1.7595,-1.7597,-1.7597,-1.7597,-1.757,-1.7569,-1.7568,-1.7567,-1.757,-1.7571,-1.7571,0,0,0,0,0,0,0,0,0,0,0,0,0,-1.7575,-1.7568,-1.7595,-1.7582,-1.7581,-1.7597,-1.7597,-1.7597,-1.757,-1.7569,-1.7568,-1.7567,-1.7569,-1.757,-1.7572,-1.7601,0,0,-1.7575,-1.7576,0,0,0,0,0,0,0,0,-1.7575,-1.7576,-1.7584,-1.7583,-1.7581,-1.7582,-1.7588,-1.7599,-1.757,-1.7574,-1.7567,-1.7566,-1.7575,-1.7575,-1.7578,-1.7601,-1.7602,-1.7575,-1.7576,-1.7576,-1.7577,0,0,0,0,0,0,0,-1.7574,-1.7576,-1.7596,-1.7584,-1.7582,-1.7575,-1.7575,-1.759,-1.7581,-1.7574,-1.7572,-1.7572,-1.7574,-1.7577,-1.7578,-1.7602,-1.7575,-1.7576,-1.7577,-1.7577,-1.7647,-1.7649,0,0,0,0,0,0,-1.7576,-1.7576,-1.7596,-1.7596,-1.7575,-1.7577,-1.7577,-1.7583,-1.7581,-1.7579,-1.7573,-1.7571,-1.7576,-1.7577,-1.7578,-1.7612,-1.7576,-1.7577,-1.7578,-1.7646,-1.7648,-1.7649,0,0,0,0,0,0,-1.7575,-1.7578,-1.7596,-1.7585,-1.7587,-1.7579,-1.7586,-1.7584,-1.7587,-1.758,-1.7578,-1.7578,-1.7575,-1.7577,-1.7595,-1.7611,-1.7578,-1.7579,-1.7645,-1.7647,-1.7648,-1.768,0,0,0,0,0,0,-1.7574,-1.7578,-1.7589,-1.7586,-1.7588,-1.7613,-1.7587,-1.7584,-1.7589,-1.7586,-1.7584,-1.7583,-1.7574,-1.7594,-1.7597,-1.7612,-1.758,-1.7643,-1.7646,-1.7648,-1.7677,-1.7682,-1.7687,0,0,0,0,0,-1.7573,-1.7598,-1.759,-1.7592,-1.7602,-1.7614,-1.7616,-1.7605,-1.759,-1.7601,-1.7597,-1.7583,-1.7609,-1.7596,-1.7599,-1.7615,-1.7642,-1.7645,-1.7648,-1.7675,-1.7681,-1.7686,0,0,0,0,0,0,-1.7604,-1.7598,-1.7588,-1.7613,-1.7614,-1.761,-1.7624,-1.7612,-1.7618,-1.7615,-1.7601,-1.7601,-1.7622,-1.762,-1.7606,-1.7643,-1.7623,-1.7627,-1.7643,-1.7649,-1.7654,-1.7653,-1.7581,0,0,0,0,0,-1.7614,-1.7625,-1.7618,-1.7641,-1.7642,-1.7633,-1.7638,-1.7629,-1.763,-1.7631,-1.7627,-1.7629,-1.7637,-1.7643,-1.7651,-1.7677,-1.7675,-1.7689,-1.7694,-1.7698,-1.7701,-1.7713,-1.7719,-1.7658,-1.7658,-1.7658,0,0,-1.7634,-1.7632,-1.7639,-1.7647,-1.7647,-1.7657,-1.7633,-1.7646,-1.7654,-1.7633,-1.765,-1.7647,-1.7648,-1.767,-1.768,-1.767,-1.7718,-1.7701,-1.7705,-1.7705,-1.7717,-1.7722,-1.7728,-1.7659,-1.7659,-1.7659,0,0,-1.7676,-1.7676,-1.7693,-1.7694,-1.7694,-1.7687,-1.7692,-1.7689,-1.7686,-1.7703,-1.7687,-1.7696,-1.7711,-1.7711,-1.7714,-1.7754,-1.7741,-1.7757,-1.7782,-1.7794,-1.7799,-1.7803,-1.7816,-1.7821,-1.776,-1.776,-1.776,0,-1.7701,-1.7717,-1.7704,-1.7718,-1.7721,-1.7701,-1.7719,-1.772,-1.7722,-1.7725,-1.7714,-1.7731,-1.773,-1.7752,-1.7761,-1.7764,-1.7768,-1.7757,-1.7799,-1.7803,-1.7807,-1.7819,-1.7825,-1.7762,-1.7762,-1.7762,-1.7762,0,-1.7747,-1.7758,-1.7772,-1.7774,-1.7779,-1.7795,-1.7784,-1.779,-1.7781,-1.7776,-1.7792,-1.7791,-1.7797,-1.7801,-1.7793,-1.7821,-1.7815,-1.7802,-1.7781,-1.7815,-1.7826,-1.7831,-1.7765,-1.7764,-1.7763,-1.7763,0,0,-1.7809,-1.7803,-1.7808,-1.7808,-1.7806,-1.7814,-1.7829,-1.7834,-1.7839,-1.7841,-1.7852,-1.7865,-1.7852,-1.7855,-1.7846,-1.7857,-1.7887,-1.7842,-1.7842,-1.785,-1.7917,-1.7926,-1.7932,-1.7879,-1.788,-1.7881,-1.7917,0,-1.7848,-1.7872,-1.786,-1.7885,-1.7894,-1.7875,-1.7887,-1.7887,-1.7882,-1.7889,-1.7884,-1.7893,-1.7876,-1.7877,-1.7887,-1.7882,-1.7901,-1.7879,-1.7888,-1.7889,-1.7888,-1.7938,-1.7949,-1.7983,-1.7921,-1.7922,-1.7923,0,-1.7898,-1.7901,-1.7927,-1.7921,-1.7925,-1.7936,-1.7939,-1.7946,-1.7946,-1.7941,-1.7944,-1.7932,-1.7945,-1.7925,-1.7942,-1.7927,-1.7931,-1.7928,-1.7929,-1.7929,-1.7907,-1.7939,-1.7993,-1.7998,-1.793,-1.7929,-1.7929,0,-1.7939,-1.795,-1.7966,-1.7967,-1.7962,-1.797,-1.7968,-1.7966,-1.7969,-1.7972,-1.7974,-1.7979,-1.7981,-1.7985,-1.7974,-1.7961,-1.7993,-1.7972,-1.7989,-1.7989,-1.7996,-1.7995,-1.8051,-1.7999,-1.7999,-1.7999,-1.7999,0,-1.7984,-1.8,-1.7984,-1.7994,-1.8011,-1.7998,-1.8015,-1.8011,-1.8009,-1.8018,-1.8002,-1.801,-1.7996,-1.8003,-1.7995,-1.801,-1.8011,-1.8007,-1.8005,-1.8008,-1.8009,-1.801,-1.8007,-1.8,-1.8,-1.8,-1.8,0,-1.8032,-1.8023,-1.8039,-1.8032,-1.8031,-1.8043,-1.8038,-1.8046,-1.804,-1.8051,-1.8052,-1.8042,-1.8049,-1.8039,-1.8046,-1.804,-1.806,-1.8055,-1.806,-1.8058,-1.8075,-1.8073,-1.8132,-1.8138,-1.8084,-1.8085,-1.8085,0,-1.8061,-1.8073,-1.8067,-1.8071,-1.807,-1.8078,-1.8081,-1.8068,-1.8071,-1.8071,-1.8079,-1.8085,-1.8088,-1.81,-1.8094,-1.8098,-1.8092,-1.8112,-1.8092,-1.8095,-1.8091,-1.809,-1.809,-1.8116,-1.8117,-1.8117,-1.8118,0,-1.8113,-1.8107,-1.8112,-1.8115,-1.8119,-1.8121,-1.8122,-1.8126,-1.8112,-1.8117,-1.8124,-1.8127,-1.8132,-1.8138,-1.814,-1.8138,-1.8125,-1.8124,-1.8128,-1.8131,-1.8133,-1.8131,-1.807,-1.8123,-1.8122,-1.8122,-1.8121,-1.8121,-1.8152,-1.8161,-1.8158,-1.8163,-1.8162,-1.8163,-1.817,-1.8164,-1.8169,-1.8172,-1.8164,-1.8173,-1.817,-1.8172,-1.8171,-1.8177,-1.8168,-1.8174,-1.8176,-1.8177,-1.8179,-1.8133,-1.8178,-1.8178,-1.8178,-1.8178,-1.8177,0,-1.8202,-1.8199,-1.8204,-1.8205,-1.8209,-1.8196,-1.8196,-1.82,-1.8207,-1.8206,-1.821,-1.8217,-1.8222,-1.8215,-1.8218,-1.8224,-1.8219,-1.8226,-1.8225,-1.8224,-1.8187,-1.8183,-1.823,-1.823,-1.823,-1.823,-1.823,-1.823,-1.8228,-1.8242,-1.8236,-1.8248,-1.8245,-1.8252,-1.8253,-1.8253,-1.8252,-1.826,-1.8264,-1.826,-1.8256,-1.8259,-1.8262,-1.826,-1.8262,-1.8271,-1.8267,-1.8232,-1.8227,-1.8222,-1.8218,-1.8272,-1.8272,-1.8303,-1.8303,-1.8303]}]]